When you browse on this site, cookies collect data to enhance your experience and personalize the content and advertising you see.
Visit our Privacy Policy to learn more. By continuing to use the site, you agree to this use of cookies and data.
  • In United Kingdom
  • List of Countries
  • For 7 days
  • Water Temperature
  • Satellite Maps
  • Weather Map
  • Weather Widgets
  • user-avatar
    Login

    Hourly Weather Yulara

    Today, 20 April, Saturday

    Time Temperature Precipitation Wind Pressure Humidity
    00:00 +24°C° 0 mm 2 mps 718 mmHg 20%
    01:00 +24°C° 0 mm 3 mps 717 mmHg 22%
    02:00 +22°C° 0 mm 3 mps 717 mmHg 23%
    03:00 +22°C° 0 mm 3 mps 717 mmHg 25%
    04:00 +22°C° 0 mm 3 mps 717 mmHg 26%
    05:00 +22°C° 0 mm 3 mps 717 mmHg 28%
    06:00 +21°C° 0 mm 4 mps 717 mmHg 29%
    07:00 +23°C° 0 mm 4 mps 718 mmHg 28%
    08:00 +26°C° 0 mm 4 mps 718 mmHg 27%
    09:00 +28°C° 0 mm 4 mps 719 mmHg 26%
    10:00 +29°C° 0 mm 5 mps 719 mmHg 24%
    11:00 +32°C° 0 mm 5 mps 719 mmHg 21%
    12:00 +33°C° 0 mm 5 mps 719 mmHg 19%
    13:00 +34°C° 0 mm 5 mps 718 mmHg 18%
    14:00 +34°C° 0 mm 5 mps 717 mmHg 17%
    15:00 +35°C° 0 mm 5 mps 717 mmHg 16%
    16:00 +33°C° 0 mm 4 mps 717 mmHg 17%
    17:00 +31°C° 0 mm 3 mps 717 mmHg 18%
    18:00 +30°C° 0 mm 2 mps 717 mmHg 20%
    19:00 +29°C° 0 mm 3 mps 717 mmHg 21%
    20:00 +28°C° 0 mm 3 mps 718 mmHg 22%
    21:00 +27°C° 0 mm 4 mps 718 mmHg 23%
    22:00 +23°C° 0 mm 6 mps 718 mmHg 37%
    23:00 +21°C° 0 mm 8 mps 718 mmHg 51%

    Tomorrow, 21 April, Sunday

    Time Temperature Precipitation Wind Pressure Humidity
    00:00 +17°C° 0 mm 10 mps 718 mmHg 65%
    01:00 +16°C° 0 mm 9 mps 719 mmHg 66%
    02:00 +15°C° 0 mm 9 mps 719 mmHg 67%
    03:00 +15°C° 0 mm 9 mps 719 mmHg 68%
    04:00 +13°C° 0 mm 9 mps 719 mmHg 66%
    05:00 +13°C° 0 mm 8 mps 720 mmHg 65%
    06:00 +13°C° 0 mm 8 mps 720 mmHg 64%
    07:00 +13°C° 0 mm 8 mps 720 mmHg 59%
    08:00 +15°C° 0 mm 8 mps 721 mmHg 54%
    09:00 +16°C° 0 mm 8 mps 722 mmHg 49%
    10:00 +18°C° 0 mm 8 mps 721 mmHg 44%
    11:00 +21°C° 0 mm 7 mps 721 mmHg 39%
    12:00 +23°C° 0 mm 7 mps 721 mmHg 34%
    13:00 +24°C° 0 mm 7 mps 721 mmHg 32%
    14:00 +26°C° 0 mm 6 mps 720 mmHg 30%
    15:00 +27°C° 0 mm 6 mps 720 mmHg 28%
    16:00 +26°C° 0 mm 6 mps 720 mmHg 29%
    17:00 +24°C° 0 mm 6 mps 720 mmHg 29%
    18:00 +23°C° 0 mm 6 mps 720 mmHg 30%
    19:00 +21°C° 0 mm 7 mps 721 mmHg 30%
    20:00 +20°C° 0 mm 7 mps 721 mmHg 31%
    21:00 +18°C° 0 mm 8 mps 722 mmHg 31%
    22:00 +17°C° 0 mm 8 mps 722 mmHg 33%
    23:00 +16°C° 0 mm 8 mps 722 mmHg 35%

    Day after tomorrow, 22 April, Monday

    Time Temperature Precipitation Wind Pressure Humidity
    00:00 +16°C° 0 mm 8 mps 722 mmHg 37%
    01:00 +15°C° 0 mm 8 mps 722 mmHg 39%
    02:00 +14°C° 0 mm 7 mps 722 mmHg 41%
    03:00 +14°C° 0 mm 7 mps 721 mmHg 43%
    04:00 +12°C° 0 mm 7 mps 722 mmHg 48%
    05:00 +11°C° 0 mm 7 mps 722 mmHg 53%
    06:00 +11°C° 0 mm 7 mps 722 mmHg 58%
    07:00 +12°C° 0 mm 7 mps 722 mmHg 55%
    08:00 +14°C° 0 mm 7 mps 723 mmHg 52%
    09:00 +15°C° 0 mm 8 mps 723 mmHg 49%
    10:00 +17°C° 0 mm 7 mps 723 mmHg 43%
    11:00 +20°C° 0 mm 7 mps 723 mmHg 36%
    12:00 +23°C° 0 mm 6 mps 722 mmHg 30%
    13:00 +23°C° 0 mm 6 mps 722 mmHg 27%
    14:00 +24°C° 0 mm 6 mps 721 mmHg 24%
    15:00 +26°C° 0 mm 5 mps 721 mmHg 22%
    16:00 +25°C° 0 mm 5 mps 721 mmHg 23%
    17:00 +23°C° 0 mm 5 mps 721 mmHg 24%
    18:00 +22°C° 0 mm 5 mps 721 mmHg 25%
    19:00 +20°C° 0 mm 5 mps 722 mmHg 27%
    20:00 +19°C° 0 mm 5 mps 722 mmHg 29%
    21:00 +17°C° 0 mm 5 mps 723 mmHg 31%
    22:00 +16°C° 0 mm 5 mps 723 mmHg 34%
    23:00 +15°C° 0 mm 5 mps 723 mmHg 37%

    23 April, Tuesday

    Time Temperature Precipitation Wind Pressure Humidity
    00:00 +15°C° 0 mm 5 mps 723 mmHg 40%
    01:00 +14°C° 0 mm 5 mps 722 mmHg 42%
    02:00 +13°C° 0 mm 5 mps 722 mmHg 45%
    03:00 +13°C° 0 mm 5 mps 722 mmHg 47%
    04:00 +12°C° 0 mm 5 mps 722 mmHg 48%
    05:00 +12°C° 0 mm 5 mps 722 mmHg 49%
    06:00 +10°C° 0 mm 5 mps 722 mmHg 50%
    07:00 +13°C° 0 mm 5 mps 723 mmHg 45%
    08:00 +15°C° 0 mm 6 mps 723 mmHg 40%
    09:00 +17°C° 0 mm 6 mps 724 mmHg 35%
    10:00 +20°C° 0 mm 6 mps 724 mmHg 31%
    11:00 +22°C° 0 mm 5 mps 723 mmHg 27%
    12:00 +25°C° 0 mm 5 mps 723 mmHg 23%
    13:00 +26°C° 0 mm 5 mps 722 mmHg 22%
    14:00 +27°C° 0 mm 5 mps 721 mmHg 20%
    15:00 +28°C° 0 mm 5 mps 721 mmHg 18%
    16:00 +27°C° 0 mm 5 mps 721 mmHg 20%
    17:00 +25°C° 0 mm 4 mps 721 mmHg 23%
    18:00 +24°C° 0 mm 3 mps 721 mmHg 25%
    19:00 +22°C° 0 mm 4 mps 722 mmHg 28%
    20:00 +21°C° 0 mm 4 mps 722 mmHg 31%
    21:00 +20°C° 0 mm 5 mps 723 mmHg 34%
    22:00 +19°C° 0 mm 5 mps 723 mmHg 37%
    23:00 +19°C° 0 mm 5 mps 723 mmHg 40%

    24 April, Wednesday

    Time Temperature Precipitation Wind Pressure Humidity
    00:00 +17°C° 0 mm 5 mps 722 mmHg 43%
    01:00 +17°C° 0 mm 5 mps 722 mmHg 44%
    02:00 +16°C° 0 mm 6 mps 722 mmHg 45%
    03:00 +16°C° 0 mm 6 mps 722 mmHg 46%
    04:00 +15°C° 0 mm 6 mps 722 mmHg 48%
    05:00 +15°C° 0 mm 5 mps 722 mmHg 51%
    06:00 +15°C° 0 mm 5 mps 722 mmHg 53%
    07:00 +16°C° 0 mm 5 mps 723 mmHg 50%
    08:00 +19°C° 0 mm 6 mps 723 mmHg 46%
    09:00 +21°C° 0 mm 6 mps 724 mmHg 43%
    10:00 +23°C° 0 mm 6 mps 724 mmHg 38%
    11:00 +26°C° 0 mm 5 mps 723 mmHg 34%
    12:00 +27°C° 0 mm 5 mps 723 mmHg 30%
    13:00 +28°C° 0 mm 5 mps 723 mmHg 27%
    14:00 +29°C° 0 mm 5 mps 722 mmHg 25%
    15:00 +30°C° 0 mm 5 mps 722 mmHg 22%
    16:00 +28°C° 0 mm 5 mps 722 mmHg 24%
    17:00 +27°C° 0 mm 5 mps 722 mmHg 26%
    18:00 +26°C° 0 mm 5 mps 722 mmHg 28%
    19:00 +24°C° 0 mm 6 mps 722 mmHg 30%
    20:00 +23°C° 0 mm 6 mps 723 mmHg 32%
    21:00 +21°C° 0 mm 6 mps 723 mmHg 34%
    22:00 +21°C° 0 mm 6 mps 723 mmHg 36%
    23:00 +20°C° 0 mm 6 mps 723 mmHg 38%

    25 April, Thursday

    Time Temperature Precipitation Wind Pressure Humidity
    00:00 +18°C° 0 mm 7 mps 723 mmHg 40%
    01:00 +17°C° 0 mm 6 mps 723 mmHg 42%
    02:00 +17°C° 0 mm 6 mps 723 mmHg 43%
    03:00 +16°C° 0 mm 6 mps 722 mmHg 45%
    04:00 +16°C° 0 mm 6 mps 723 mmHg 46%
    05:00 +16°C° 0 mm 6 mps 723 mmHg 48%
    06:00 +15°C° 0 mm 6 mps 723 mmHg 49%
    07:00 +17°C° 0 mm 7 mps 724 mmHg 46%
    08:00 +20°C° 0 mm 8 mps 724 mmHg 44%
    09:00 +21°C° 0 mm 9 mps 724 mmHg 42%
    10:00 +23°C° 0 mm 8 mps 724 mmHg 37%
    11:00 +26°C° 0 mm 8 mps 724 mmHg 33%
    12:00 +27°C° 0 mm 8 mps 723 mmHg 28%
    13:00 +28°C° 0 mm 8 mps 723 mmHg 26%
    14:00 +29°C° 0 mm 8 mps 722 mmHg 24%
    15:00 +29°C° 0 mm 8 mps 721 mmHg 22%
    16:00 +28°C° 0 mm 7 mps 722 mmHg 25%
    17:00 +27°C° 0 mm 7 mps 722 mmHg 27%
    18:00 +24°C° 0 mm 6 mps 722 mmHg 29%
    19:00 +23°C° 0 mm 6 mps 722 mmHg 33%
    20:00 +22°C° 0 mm 6 mps 723 mmHg 36%
    21:00 +21°C° 0 mm 6 mps 723 mmHg 40%
    22:00 +21°C° 0 mm 6 mps 723 mmHg 43%
    23:00 +20°C° 0 mm 6 mps 723 mmHg 46%
    Show more